Rochester, NH

2:02 AM EST on February 14, 2016 (GMT -0500)
Skyhaven

Weather History for KDAW - July, 2013

Change the Weather History Date:

Sunday, July 14, 2013

  Actual Average (KSFM) Record (KSFM)
Temperature  
Mean Temperature 76 °F -  
Max Temperature 87 °F 77 °F 91 °F (1998)
Min Temperature 66 °F 55 °F 44 °F (1999)
Cooling Degree Days 11    
Growing Degree Days 26 (Base 50)    
Moisture  
Dew Point 68 °F    
Average Humidity 75    
Maximum Humidity 93    
Minimum Humidity 55    
Precipitation  
Precipitation 0.00 in - - ()
Sea Level Pressure  
Sea Level Pressure 30.24 in    
Wind  
Wind Speed 2 mph (North)    
Max Wind Speed 7 mph    
Max Gust Speed -    
Visibility 10 miles    
Events      
Averages and records for this station are not official NWS values.
T = Trace of Precipitation, MM = Missing Value Source: NWS Daily Summary

Daily Weather History Graph

Daily Weather History Graph

Search for Another Location

Airport or City:

Trip Planner

Search our weather history database for the weather conditions in past years. The results will help you decide how hot, cold, wet, or windy it might be!

Date:

Astronomy

Jul. 14, 2013 Rise Set
Actual Time 5:16 AM EDT 8:22 PM EDT
Civil Twilight 4:42 AM EDT 8:56 PM EDT
Nautical Twilight 3:58 AM EDT 9:40 PM EDT
Astronomical Twilight 3:05 AM EDT 10:32 PM EDT
Moon 11:42 AM EDT 11:19 PM EDT
Length of Visible Light 16h 14m
Length of Day
15h 05m
Waxing Crescent, 35% of the Moon is Illuminated
Jul 14
Waxing Crescent
Jul 15
First Quarter
Jul 22
Full
Jul 29
Last Quarter
Aug 6
New

Hourly Weather History & Observations

Time (EDT) Temp. Heat Index Dew Point Humidity Pressure Visibility Wind Dir Wind Speed Gust Speed Precip Events Conditions
12:51 AM 66.0 °F - 63.0 °F 90% 30.29 in 10.0 mi WNW 3.5 mph - N/A   Partly Cloudy
1:51 AM 66.9 °F - 63.0 °F 87% 30.29 in 10.0 mi Calm Calm - N/A   Overcast
2:51 AM 66.0 °F - 63.0 °F 90% 30.27 in 10.0 mi Calm Calm - N/A   Scattered Clouds
3:51 AM 66.0 °F - 64.0 °F 93% 30.27 in 10.0 mi Calm Calm - N/A   Clear
4:51 AM 66.0 °F - 64.0 °F 93% 30.27 in 8.0 mi Calm Calm - N/A   Clear
5:51 AM 66.0 °F - 63.0 °F 90% 30.27 in 8.0 mi Calm Calm - N/A   Mostly Cloudy
6:51 AM 71.1 °F - 66.0 °F 84% 30.27 in 10.0 mi Calm Calm - N/A   Clear
7:51 AM 75.0 °F - 68.0 °F 79% 30.28 in 10.0 mi Calm Calm - N/A   Partly Cloudy
8:51 AM 79.0 °F - 70.0 °F 74% 30.27 in 10.0 mi Variable 3.5 mph - N/A   Clear
9:51 AM 82.0 °F 85.9 °F 70.0 °F 67% 30.26 in 10.0 mi Variable 5.8 mph - N/A   Mostly Cloudy
10:51 AM 84.0 °F 87.0 °F 68.0 °F 58% 30.25 in 10.0 mi NNW 4.6 mph - N/A   Scattered Clouds
11:51 AM 84.0 °F 87.0 °F 68.0 °F 58% 30.25 in 10.0 mi Variable 4.6 mph - N/A   Mostly Cloudy
12:51 PM 84.0 °F 87.0 °F 68.0 °F 58% 30.25 in 10.0 mi North 6.9 mph - N/A   Overcast
1:51 PM 86.0 °F 90.7 °F 70.0 °F 59% 30.23 in 10.0 mi North 3.5 mph - N/A   Overcast
2:51 PM 84.9 °F 88.2 °F 68.0 °F 57% 30.22 in 10.0 mi NNE 4.6 mph - N/A   Overcast
3:51 PM 84.9 °F 87.6 °F 66.9 °F 55% 30.21 in 10.0 mi Calm Calm - N/A   Overcast
4:51 PM 86.0 °F 89.4 °F 68.0 °F 55% 30.20 in 10.0 mi Calm Calm - N/A   Overcast
5:51 PM 84.0 °F 89.0 °F 71.1 °F 65% 30.19 in 10.0 mi South 5.8 mph - N/A   Clear
6:51 PM 84.0 °F 89.6 °F 72.0 °F 67% 30.19 in 10.0 mi Calm Calm - N/A   Partly Cloudy
7:51 PM 81.0 °F 85.2 °F 72.0 °F 74% 30.19 in 10.0 mi Calm Calm - N/A   Clear
8:51 PM 77.0 °F - 72.0 °F 84% 30.19 in 10.0 mi Calm Calm - N/A   Clear
9:51 PM 75.0 °F - 72.0 °F 90% 30.19 in 10.0 mi Calm Calm - N/A   Clear
10:51 PM 73.9 °F - 71.1 °F 91% 30.19 in 10.0 mi Calm Calm - N/A   Clear
11:51 PM 72.0 °F - 69.1 °F 91% 30.19 in 10.0 mi Calm Calm - N/A   Clear